Weather History for Monroe, LA

Change the Weather History Date:

Saturday, May 18, 2013

  Actual Average Record
Temperature  
Mean Temperature 81 °F 75 °F  
Max Temperature 89 °F 86 °F 95 °F (1998)
Min Temperature 72 °F 64 °F 51 °F (1973)
Degree Days  
Heating Degree Days 0 0  
Month to date heating degree days 41 3  
Since 1 July heating degree days 2205 2227  
Cooling Degree Days 16 10  
Month to date cooling degree days 73 140  
Year to date cooling degree days 186 287  
Growing Degree Days 30 (Base 50)    
Moisture  
Dew Point 70 °F    
Average Humidity 75    
Maximum Humidity 93    
Minimum Humidity 56    
Precipitation  
Precipitation 0.00 in 0.17 in 3.16 in (1989)
Month to date precipitation 2.60 3.09  
Year to date precipitation 24.26 21.95  
Snow  
Snow 0.00 in - - ()
Month to date snowfall 0.0  
Since 1 July snowfall 0.3  
Snow Depth 0.00 in    
Sea Level Pressure  
Sea Level Pressure 29.96 in    
Wind  
Wind Speed 7 mph (South)    
Max Wind Speed 14 mph    
Max Gust Speed 18 mph    
Visibility 9 miles    
Events      
T = Trace of Precipitation, MM = Missing Value Source: NWS Daily Summary

Daily Weather History Graph

Daily Weather History Graph

Search for Another Location

Airport:

Trip Planner

Search our weather history database for the weather conditions in past years. The results will help you decide how hot, cold, wet, or windy it might be!

Date:

Astronomy

May. 18, 2013 Rise Set
Actual Time 6:07 AM CDT 8:01 PM CDT
Civil Twilight 5:40 AM CDT 8:29 PM CDT
Nautical Twilight 5:07 AM CDT 9:02 PM CDT
Astronomical Twilight 4:32 AM CDT 9:37 PM CDT
Moon 1:27 PM CDT (5/18) 1:36 AM CDT (5/18)
Length of Visible Light 14h 48m
Length of Day
13h 54m
First Quarter, 55% of the Moon is Illuminated
May 18
First Quarter
May 24
Full
May 31
Last Quarter
Jun 8
New
Jun 16
First Quarter

Hourly Weather History & Observations

Time (CDT) Temp. Heat Index Dew Point Humidity Pressure Visibility Wind Dir Wind Speed Gust Speed Precip Events Conditions
12:53 AM 73.9 °F - 69.1 °F 85% 29.94 in 7.0 mi South 6.9 mph - N/A   Clear
1:53 AM 72.0 °F - 69.1 °F 91% 29.94 in 7.0 mi South 4.6 mph - N/A   Clear
2:15 AM 71.6 °F - 69.8 °F 94% 29.94 in 7.0 mi South 3.5 mph - N/A   Mostly Cloudy
2:53 AM 73.0 °F - 69.1 °F 87% 29.94 in 7.0 mi SSW 6.9 mph - N/A   Overcast
3:53 AM 72.0 °F - 69.1 °F 91% 29.94 in 7.0 mi SSW 6.9 mph - N/A   Overcast
4:42 AM 71.6 °F - 69.8 °F 94% 29.96 in 7.0 mi SSW 4.6 mph - N/A   Overcast
4:53 AM 72.0 °F - 69.1 °F 91% 29.95 in 7.0 mi SSW 3.5 mph - N/A   Overcast
5:53 AM 73.0 °F - 69.1 °F 87% 29.98 in 7.0 mi Calm Calm - N/A   Overcast
6:53 AM 73.0 °F - 69.1 °F 87% 30.00 in 6.0 mi Calm Calm - N/A   Overcast
7:53 AM 73.9 °F - 70.0 °F 87% 30.01 in 6.0 mi SSE 4.6 mph - N/A   Overcast
8:53 AM 75.9 °F - 71.1 °F 85% 30.02 in 7.0 mi South 5.8 mph - N/A   Overcast
9:53 AM 78.1 °F - 70.0 °F 76% 30.03 in 8.0 mi South 9.2 mph - N/A   Overcast
10:53 AM 82.0 °F 85.9 °F 70.0 °F 67% 30.02 in 9.0 mi South 12.7 mph - N/A   Mostly Cloudy
11:53 AM 84.0 °F 89.0 °F 71.1 °F 65% 30.01 in 10.0 mi South 8.1 mph - N/A   Mostly Cloudy
12:28 PM 84.2 °F 89.6 °F 71.6 °F 66% 30.00 in 10.0 mi South 10.4 mph - N/A   Scattered Clouds
12:53 PM 86.0 °F 92.2 °F 72.0 °F 63% 29.99 in 10.0 mi SSW 6.9 mph - N/A   Scattered Clouds
1:53 PM 86.0 °F 91.8 °F 71.6 °F 62% 29.98 in 10.0 mi SSW 10.4 mph 17.3 mph N/A   Mostly Cloudy
2:53 PM 88.0 °F 93.8 °F 71.1 °F 57% 29.96 in 10.0 mi SSW 10.4 mph 18.4 mph N/A   Partly Cloudy
3:53 PM 89.1 °F 95.0 °F 71.1 °F 55% 29.94 in 10.0 mi SSW 9.2 mph - N/A   Scattered Clouds
4:53 PM 88.0 °F 93.8 °F 71.1 °F 57% 29.94 in 10.0 mi South 11.5 mph - N/A   Scattered Clouds
5:53 PM 86.0 °F 90.7 °F 70.0 °F 59% 29.94 in 10.0 mi South 8.1 mph - N/A   Partly Cloudy
6:53 PM 84.9 °F 90.1 °F 71.1 °F 63% 29.93 in 10.0 mi South 8.1 mph - N/A   Clear
7:53 PM 82.0 °F 85.9 °F 70.0 °F 67% 29.93 in 10.0 mi South 6.9 mph - N/A   Clear
8:53 PM 80.1 °F 82.9 °F 69.1 °F 69% 29.93 in 10.0 mi South 6.9 mph - N/A   Clear
9:53 PM 79.0 °F - 69.1 °F 72% 29.94 in 10.0 mi South 8.1 mph - N/A   Clear
10:53 PM 78.1 °F - 69.1 °F 74% 29.93 in 10.0 mi South 8.1 mph - N/A   Clear
11:53 PM 75.9 °F - 69.1 °F 79% 29.93 in 10.0 mi South 6.9 mph - N/A   Clear